Lexington Weather

Lexington, Massachusetts, USA

40°F
3/2/2024 9:07am 
  • Lexington Conditions: Overcast
  • Temperature: 39.9°F / 4.4°CWarmer 2.0°F than last hour.
  • Dew Point: 33.6°FIncreased 1.2°Fsince last hour.
  • Relative Humidity: 78%Decreased 2.0% since last hour.
  • Wind: Calm, 10-min avg: Calm, gust: 1 mph
  • Barometer: 30.44 in Steady
  • Visibility: 10 miles
  • Rain Today: 0.00 in
  •   

Regional Weather Roundup
for Boston, MA

        
000
ASUS41 KBOX 010510
RWRBOX

REGIONAL WEATHER ROUNDUP
NATIONAL WEATHER SERVICE BOSTON/NORTON MA
1200 AM EST FRI MAR 01 2024

NOTE:  "FAIR" INDICATES FEW OR NO CLOUDS BELOW 12,000 FEET WITH NO 
SIGNIFICANT WEATHER AND/OR OBSTRUCTIONS TO VISIBILITY.

MAZALL-010600-
EASTERN MASSACHUSETTS
  
CITY           SKY/WX    TMP DP  RH WIND       PRES   REMARKS
BOSTON         PTCLDY    26   4  38 NW13      30.39R WCI  15          
BEVERLY        CLEAR     24   3  40 W9G23     30.37R WCI  14          
LAWRENCE       CLEAR     24   2  38 W10G31    30.38R WCI  14          
BEDFORD        CLEAR     24   4  42 W9        30.37R WCI  14          
NORWOOD        MOCLDY    28   8  43 W8G18     30.39R WCI  20          
MARSHFIELD     CLOUDY    27   7  43 VRB6      30.39R WCI  20          
PLYMOUTH       CLEAR     27   7  42 W12       30.38R WCI  17          
TAUNTON        CLEAR     28   7  41 W7        30.39R WCI  21          
NEW BEDFORD    CLEAR     28   8  43 W13G26    30.40R WCI  17          
$$

MAZALL-010600-
CAPE COD AND THE ISLANDS
  
CITY           SKY/WX    TMP DP  RH WIND       PRES   REMARKS
FALMOUTH       NOT AVBL                                               
HYANNIS        CLEAR     27   5  39 W10G16    30.38R WCI  17          
CHATHAM        CLEAR     28   6  39 W13G30    30.39R WCI  17          
PROVINCETOWN   MOCLDY    28  11  48 W24G36    30.39R WCI  14          
NANTUCKET      CLEAR     30  12  47 NW15G33   30.40R WCI  19          
MARTHAS VNYRD  CLEAR     28   7  41 NW10G22   30.41R WCI  19          
$$
 
MAZALL-010600-
CENTRAL AND WESTERN MASSACHUSETTS
  
CITY           SKY/WX    TMP DP  RH WIND       PRES   REMARKS
WORCESTER      CLOUDY    23  10  57 W16G25    30.31R WCI  10          
FITCHBURG      MOCLDY    24   4  42 NW6       30.37R WCI  17          
ORANGE         CLOUDY    24   7  48 NW10      30.37R WCI  14          
SPRINGFIELD    MOCLDY    26   9  49 NW9       30.38R WCI  16          
WESTFIELD      CLOUDY    26  10  50 W7G20     30.40S WCI  18          
NORTH ADAMS    CLOUDY    24  12  60 W12       30.37R WCI  13          
PITTSFIELD     CLOUDY    20  13  74 W9        30.33R WCI   9          
$$
 
RIZALL-010600-
RHODE ISLAND
  
CITY           SKY/WX    TMP DP  RH WIND       PRES   REMARKS
PROVIDENCE     CLEAR     26   9  48 NW12G20   30.42R WCI  16          
NEWPORT        CLEAR     27  10  49 NW18G28   30.40R WCI  14          
BLOCK ISLAND   CLEAR     27  13  55 NW8       30.44R WCI  19          
SMITHFIELD     CLEAR     24  10  55 W9        30.39R WCI  14          
WESTERLY       CLEAR     27  11  51 NW3       30.43R                  
$$
 
CTZALL-010600-
CONNECTICUT
  
CITY           SKY/WX    TMP DP  RH WIND       PRES   REMARKS
BRADLEY INTL   PTCLDY    26  10  50 W8        30.42R WCI  18          
HARTFORD       CLEAR     27  12  53 CALM      30.44R                  
PLAINVILLE     FAIR      23  15  69 CALM      30.42S                  
BRIDGEPORT     CLEAR     30  11  45 NW7       30.44R WCI  23          
DANBURY        CLEAR     30   8  39 W9G21     30.43R WCI  22          
GROTON         CLEAR     28  12  51 NW9       30.43R WCI  19          
NEW HAVEN      CLEAR     33  13  43 VRB6      30.43R WCI  28          
CHESTER        CLEAR     25  12  58 NW5       30.41S WCI  19          
MERIDEN        CLEAR     26  13  57 NW5       30.44R WCI  20          
WILLIMANTIC    CLEAR     26   9  48 VRB7G20   30.41R WCI  18          
OXFORD         CLEAR     25  11  55 VRB5      30.40R WCI  19          
$$

MEZ002-015-021-024-NHZ003-005-008-011-012-014-VTZ005-008-010600-
NORTHERN NEW ENGLAND
  
CITY           SKY/WX    TMP DP  RH WIND       PRES   REMARKS
PORTLAND ME    PTCLDY    17   1  49 NW8       30.35R WCI   7          
BANGOR ME      PTCLDY    10  -8  44 NW12G23   30.30R WCI  -5          
CONCORD NH     CLEAR     20   0  41 W10       30.34R WCI   9          
MANCHESTER NH  PTCLDY    23   4  44 NW9       30.35R WCI  13          
NASHUA NH      CLEAR     23   4  44 NW9       30.38R WCI  13          
PORTSMOUTH NH  PTCLDY    22   0  37 W8        30.35R WCI  13          
JAFFREY NH     MOCLDY    21   1  41 W8        30.31R WCI  11          
KEENE NH       CLOUDY    22   4  46 NW5       30.37R WCI  16          
BURLINGTON VT  PTCLDY    16  -4  41 N12       30.41R WCI   3          
MT. WASHINGTON BLWGSNOW -15 -15 100 NW62G78     N/A  VSB 1/16WCI -55  
$$

NYZ052-076-010600-
EASTERN NEW YORK
  
CITY           SKY/WX    TMP DP  RH WIND       PRES   REMARKS
ALBANY         CLOUDY    24  14  65 W8        30.43R WCI  15          
NEW YORK CITY  CLEAR     34  11  38 NW10      30.45R WCI  26          
$$
 
ANZALL-010600-
MARINE OBSERVATIONS
  
STATION/POSITION TIME  TEMP    WIND        PRES    VSBY  WAVE
                       AIR SEA DIR/SP/G                  HT/PER
                 (UTC) (F)     (DEG/KT/KT) (MB)    (MI)  (FT/S)
BOSTON BUOY      0450   29 40  280/ 21/ 29 1028.3R         4/ 4
BUZZARDS BAY     0400   30     310/ 22/ 24 1029.7R
NANTUCKET SOUND  0450   31 38  290/ 21/ 29 1028.8R         3/ 3
MASS BAY-STELLWA 0304   29 40  280/ 21/ 27 1027.2R  1 7/8  4/ 5
ISLE OF SHOALS   0400   24     290/ 26/ 30 1026.1R
S OF BLOCK IS    0456      42                N/A           5/ 6
$$

......................KEY.........................
  SKY/WX - SKY CONDITION/PRESENT WEATHER
  TMP    - TEMPERATURE IN FAHRENHEIT
  DWPT   - DEWPOINT IN FAHRENHEIT
  RH     - RELATIVE HUMIDITY IN PERCENT
  WIND   - DIRECTION AND SPEED IN MPH
  PRES   - MEAN SEA LEVEL PRESSURE IN INCHES OF HG
  WCI    - WIND CHILL INDEX
  VSB    - VISIBILITY IN MILES
  HX     - HEAT INDEX
  TC     - TEMPERATURE IN CELSIUS
  VRB    - VARIABLE WIND DIRECTION
  N/A    - NOT AVAILABLE
  
      

Other recent Regional Weather Roundups

Sat Mar 2, 8:10am EST

Sat Mar 2, 7:10am EST

Sat Mar 2, 6:10am EST

Sat Mar 2, 5:10am EST

Sat Mar 2, 4:10am EST

Sat Mar 2, 3:10am EST

Sat Mar 2, 2:10am EST

Sat Mar 2, 1:10am EST

Sat Mar 2, 12:10am EST

Fri Mar 1, 11:10pm EST

Fri Mar 1, 10:10pm EST

Fri Mar 1, 9:10pm EST

Fri Mar 1, 8:10pm EST

Fri Mar 1, 7:10pm EST

Fri Mar 1, 6:10pm EST

Fri Mar 1, 5:10pm EST

Fri Mar 1, 4:10pm EST

Fri Mar 1, 3:10pm EST

Fri Mar 1, 2:10pm EST

Fri Mar 1, 1:10pm EST

Fri Mar 1, 12:10pm EST

Fri Mar 1, 11:10am EST

Fri Mar 1, 10:10am EST

Fri Mar 1, 9:10am EST

Fri Mar 1, 8:10am EST

Fri Mar 1, 7:10am EST

Fri Mar 1, 6:10am EST

Fri Mar 1, 5:10am EST

Fri Mar 1, 4:10am EST

Fri Mar 1, 3:10am EST

Fri Mar 1, 2:10am EST

Fri Mar 1, 1:10am EST

Thu Feb 29, 11:10pm EST

Thu Feb 29, 10:10pm EST

Thu Feb 29, 9:10pm EST

Thu Feb 29, 8:10pm EST

Thu Feb 29, 7:10pm EST

Thu Feb 29, 6:10pm EST

Thu Feb 29, 5:10pm EST

Thu Feb 29, 4:10pm EST

Thu Feb 29, 3:10pm EST

Thu Feb 29, 2:10pm EST

Thu Feb 29, 1:10pm EST

Thu Feb 29, 12:10pm EST

Thu Feb 29, 11:10am EST

Thu Feb 29, 10:10am EST

Thu Feb 29, 9:10am EST

Thu Feb 29, 8:10am EST

Thu Feb 29, 7:10am EST

Thu Feb 29, 6:10am EST

Thu Feb 29, 5:10am EST

Thu Feb 29, 4:10am EST

Thu Feb 29, 3:10am EST

Thu Feb 29, 2:10am EST

Thu Feb 29, 1:10am EST

Thu Feb 29, 12:10am EST

Wed Feb 28, 11:10pm EST

Wed Feb 28, 10:10pm EST

Wed Feb 28, 9:10pm EST

Wed Feb 28, 8:10pm EST

Wed Feb 28, 7:10pm EST

Wed Feb 28, 6:10pm EST

Wed Feb 28, 5:10pm EST

Wed Feb 28, 4:10pm EST

Wed Feb 28, 3:10pm EST

Wed Feb 28, 2:10pm EST

Wed Feb 28, 1:10pm EST

Wed Feb 28, 12:10pm EST

Wed Feb 28, 11:10am EST

Wed Feb 28, 10:10am EST

Wed Feb 28, 9:10am EST

Wed Feb 28, 8:10am EST

Wed Feb 28, 7:10am EST

Wed Feb 28, 6:10am EST

Wed Feb 28, 5:10am EST

Wed Feb 28, 4:10am EST

Wed Feb 28, 3:10am EST

Wed Feb 28, 2:10am EST

Wed Feb 28, 1:10am EST

Wed Feb 28, 12:10am EST

Tue Feb 27, 11:10pm EST

Tue Feb 27, 10:10pm EST

Tue Feb 27, 9:10pm EST

Tue Feb 27, 8:10pm EST

Tue Feb 27, 7:10pm EST

Tue Feb 27, 6:10pm EST

Tue Feb 27, 5:10pm EST

Tue Feb 27, 4:10pm EST

Tue Feb 27, 3:10pm EST

Tue Feb 27, 2:10pm EST

Tue Feb 27, 1:10pm EST

Tue Feb 27, 12:10pm EST

Tue Feb 27, 11:10am EST

Tue Feb 27, 10:10am EST

Tue Feb 27, 9:10am EST

Tue Feb 27, 8:10am EST

Tue Feb 27, 7:10am EST

Tue Feb 27, 6:10am EST

Tue Feb 27, 5:10am EST

Tue Feb 27, 4:10am EST

Tue Feb 27, 3:10am EST

Tue Feb 27, 2:10am EST

Tue Feb 27, 1:10am EST

Tue Feb 27, 12:10am EST

Mon Feb 26, 11:10pm EST

Mon Feb 26, 10:10pm EST

Mon Feb 26, 9:10pm EST

Mon Feb 26, 8:10pm EST

Mon Feb 26, 7:10pm EST

Mon Feb 26, 6:10pm EST

Mon Feb 26, 5:10pm EST

Mon Feb 26, 4:10pm EST

Mon Feb 26, 3:10pm EST

Mon Feb 26, 2:10pm EST

Mon Feb 26, 1:10pm EST

Mon Feb 26, 12:10pm EST

Mon Feb 26, 11:10am EST

Mon Feb 26, 10:10am EST

Mon Feb 26, 9:10am EST

Mon Feb 26, 8:10am EST

Mon Feb 26, 7:10am EST

Mon Feb 26, 6:10am EST

Mon Feb 26, 5:10am EST

Mon Feb 26, 4:10am EST

Mon Feb 26, 3:10am EST

Mon Feb 26, 2:10am EST

Mon Feb 26, 1:10am EST

Mon Feb 26, 12:10am EST

Sun Feb 25, 11:10pm EST

Sun Feb 25, 10:10pm EST

Sun Feb 25, 9:10pm EST

Sun Feb 25, 8:10pm EST

Sun Feb 25, 7:10pm EST

Sun Feb 25, 6:10pm EST

Sun Feb 25, 5:10pm EST

Sun Feb 25, 4:10pm EST

Sun Feb 25, 3:10pm EST

Sun Feb 25, 2:10pm EST

Sun Feb 25, 1:10pm EST

Sun Feb 25, 12:10pm EST

Sun Feb 25, 11:10am EST

Sun Feb 25, 10:10am EST

Sun Feb 25, 9:10am EST

Sun Feb 25, 8:10am EST

Sun Feb 25, 7:10am EST

Sun Feb 25, 6:10am EST

Sun Feb 25, 5:10am EST

Sun Feb 25, 4:10am EST

Sun Feb 25, 3:10am EST

Sun Feb 25, 2:10am EST

Sun Feb 25, 1:10am EST

Sun Feb 25, 12:10am EST

Sat Feb 24, 11:10pm EST

Sat Feb 24, 10:10pm EST

Sat Feb 24, 9:10pm EST

Sat Feb 24, 8:10pm EST

Sat Feb 24, 7:10pm EST

Sat Feb 24, 6:10pm EST

Sat Feb 24, 5:10pm EST

Sat Feb 24, 4:10pm EST

Sat Feb 24, 3:10pm EST

Sat Feb 24, 2:10pm EST

Sat Feb 24, 1:10pm EST

Sat Feb 24, 12:10pm EST

Sat Feb 24, 11:10am EST

Sat Feb 24, 10:10am EST

Sat Feb 24, 9:10am EST